Regional Weather Roundup
Issued by NWS

Home | Current Version | Previous Version | Text Only | Print | Product List | Glossary Off
Versions: 1 2 3 4 5 6 7 8 9 10 11 12 13 14 15 16 17 18 19 20 21 22 23 24 25 26 27 28 29 30 31 32 33 34 35 36 37 38 39 40 41 42 43 44 45 46 47 48 49 50

000
ASUS45 KSLC 301810
RWRUT

UTAH REGIONAL WEATHER ROUNDUP
NATIONAL WEATHER SERVICE SALT LAKE CITY UT
1100 AM MST FRI JAN 30 2015

UTZ001>011-023>025-301900-

NORTHERN UTAH

CITY           SKY/WX    TMP DP  RH WIND       PRES   REMARKS
BRIGHAM CITY   CLOUDY    42  36  79 CALM      30.13F
HILL AFB       PTSUNNY   41  29  60 VRB3      30.11F
LOGAN          FOG       33  33 100 NW3       30.15F VSB 1/4
OGDEN          CLOUDY    41  34  76 W5        30.11F
PROVO AIRPORT  CLOUDY    39  37  93 NW12      30.10F FOG     WCI  32
SALT LAKE CITY CLOUDY    40  35  83 W3        30.12F
VERNAL         CLOUDY    38  35  89 E5        30.17F WCI  34
WENDOVER       CLOUDY    43  36  75 CALM      30.13F
HEBER CITY     CLOUDY    36  34  93 CALM      30.14S FOG
WEST JORDAN    PTSUNNY   39  37  93 N7        30.13S WCI  34

$$

UTZ012>022-026-027-301900-

SOUTHERN/CENTRAL UTAH

CITY           SKY/WX    TMP DP  RH WIND       PRES   REMARKS
BLANDING       CLOUDY    33  33 100 SE7       30.22F WCI  26
BRYCE CANYON   LGT SNOW  32  30  92 S9        30.06F WCI  24
CEDAR CITY     CLOUDY    39  36  89 CALM      29.99F
DELTA          CLOUDY    41  40  96 N10       30.06F
HANKSVILLE     CLOUDY    45  41  87 NE5       30.14F
MILFORD        LGT RAIN  40  38  93 N16       30.04F WCI  31
MOAB/CYNLANDS  LGT RAIN  43  39  86 SE7       30.11F
PRICE          CLOUDY    40  36  86 CALM      30.14S
ST GEORGE      CLOUDY    48  43  81 SW5       30.01S
KANAB          CLOUDY    39  36  87 N9        30.07S WCI  33

$$

REGIONAL REPORTS     COLORADO/ARIZONA

CITY           SKY/WX    TMP DP  RH WIND       PRES   REMARKS
CRAIG, CO      CLOUDY    37  31  78 E5        30.17F WCI  33
GRAND JUNCTION CLOUDY    45  33  63 SE9       30.13S
RIFLE          CLOUDY    38  30  73 CALM      30.15F
MONTROSE       CLOUDY    41  33  73 CALM      30.16R
CORTEZ         MIX PCPN  37  34  89 CALM      30.15F
PAGE, AZ       NOT AVBL
GRAND CANYON   CLOUDY    38  36  92 E9G18     30.01R WCI  31
KINGMAN        LGT RAIN  47  45  93 N8        29.92S FOG
FLAGSTAFF      LGT RAIN  37  35  92 NE7       30.01S FOG     WCI  32

$$

REGIONAL REPORTS    NEVADA/IDAHO/WYOMING

CITY           SKY/WX    TMP DP  RH WIND       PRES   REMARKS
LAS VEGAS, NV  LGT RAIN  53  45  74 NW13      29.92S
ELY            CLOUDY    36  35  96 N15       30.08F WCI  27
ELKO           PTSUNNY   45  32  60 NE15      30.11F
POCATELLO, ID  MOSUNNY   33  30  88 CALM      30.21S
BURLEY         CLOUDY    37  26  64 CALM      30.22R
EVANSTON, WY   CLOUDY    32  26  78 N7        30.15F WCI  26
ROCK SPRINGS   CLOUDY    32  28  85 CALM      30.18S
KEMMERER       PTSUNNY   32  25  74 N6        30.18S WCI  26

$$



USA.gov is the U.S. government's official web portal to all federal, state and local government web resources and services.